Regional Weather Roundup
Issued by NWS

Home | Current Version | Previous Version | Graphics & Text | Print | Product List | Glossary On
Versions: 1 2 3 4 5 6 7 8 9 10 11 12 13 14 15 16 17 18 19 20 21 22 23 24 25 26 27
000
ASUS45 KBOU 250807
RWRCO

WEATHER ROUNDUP FOR COLORADO
NATIONAL WEATHER SERVICE DENVER/BOULDER CO
200 AM MDT SAT OCT 25 2014

NOTE: "FAIR" INDICATES FEW OR NO CLOUDS BELOW 12000 FEET WITH NO
SIGNIFICANT WEATHER AND/OR OBSTRUCTIONS TO VISIBILITY.

COZ001>005-013-030-031-250900-
...NORTHWEST COLORADO...

CITY           SKY/WX    TMP DP  RH WIND       PRES   REMARKS
CRAIG          PTCLDY    31  25  78 CALM      30.32S
HAYDEN         PTCLDY    39  25  56 SE10      30.33R
MEEKER         PTCLDY    37  29  72 E3        30.33S
MOUNT WERNER   NOT AVBL
STEAMBOAT SPGS PTCLDY    38  26  61 CALM      30.36R
WALDEN         PTCLDY    32  19  59 SE9       30.39S WCI  24
$$

COZ006>008-011-250900-
...WEST CENTRAL VALLEYS...

CITY           SKY/WX    TMP DP  RH WIND       PRES   REMARKS
GRAND JUNCTION CLEAR     48  33  56 CALM      30.25R
MONTROSE       CLEAR     43  29  57 S7        30.33S
EAGLE          CLEAR     36  28  75 CALM      30.42R
RIFLE          CLEAR     40  32  73 CALM      30.32R
DELTA          CLEAR     45  32  59 NE5       30.30F
NUCLA          CLEAR     45  28  53 E9        30.36R
$$

COZ017>023-064>068-250900-
...SOUTHWEST COLORADO...

CITY           SKY/WX    TMP DP  RH WIND       PRES   REMARKS
DURANGO        PTCLDY    42  33  70 NE5       30.37F
CORTEZ         CLEAR     35  28  75 E3        30.34R
PAGOSA SPRINGS PTCLDY    39  31  73 CALM      30.44S
TELLURIDE      CLEAR     44  24  46 SE6       30.51S
WOLF CREEK PAS PTCLDY    39  25  56 SW13        N/A
$$

COZ009-010-012-014-032>034-037-058>063-250900-
...CENTRAL COLORADO...

CITY           SKY/WX    TMP DP  RH WIND       PRES   REMARKS
ASPEN          CLEAR     39  21  48 S7        30.42F
BUENA VISTA    CLEAR     39  19  44 S5        30.45R
COPPER MTN     CLEAR     45  10  24 S15G21    30.64S
BERTHOUD PASS  FAIR      34  32  93 NW26      30.64S WCI  21
COTTONWOOD PAS CLEAR     52  -4  10 CALM      30.53R
GUNNISON       CLEAR     28  21  74 CALM      30.49S
KREMMLING      CLEAR     30  23  74 CALM        N/A
LEADVILLE      CLEAR     30  18  60 N6        30.53F WCI  24
MONARCH PASS   PTCLDY    39  10  30 W21       30.74S
SALIDA         CLEAR     46  21  37 N3        30.50S
SUNLIGHT       CLEAR     45  19  36 SW3       30.59S
WILKERSON PASS NOT AVBL
$$

COZ069>075-250900-
...SAN LUIS VALLEY/SANGRE DE CRISTO MOUNTAINS...

CITY           SKY/WX    TMP DP  RH WIND       PRES   REMARKS
ALAMOSA        MOCLDY    35  25  66 W5        30.41R WCI  31
LA VETA PASS   CLEAR     45  21  39 S10       30.54S
SAGUACHE       PTCLDY    45  21  39 NW17      30.43S
$$

COZ035-036-038>040-250900-
...NORTHERN COLORADO FRONT RANGE...

CITY           SKY/WX    TMP DP  RH WIND       PRES   REMARKS
DENVER INTL AP CLEAR     54  25  32 SW8       30.20S
DMNS CITY PARK   N/A     56  23  28 S2G9      30.21S
AURORA         CLEAR     53  24  31 S7        30.23S
FRONT RANGE AP CLEAR     54  27  35 SW8       30.22R
ERIE MUNI ARPT CLEAR     42  29  59 CALM      30.19S
BOULDER MUN AP CLEAR     59  23  25 CALM      30.18F
CENTENNIAL     CLEAR     56  23  27 SW10      30.24R
BROOMFIELD     CLEAR     59  19  21 W3        30.22S
FORT COLLINS   CLEAR     48  30  49 CALM      30.20S
LONGMONT       CLEAR     44  31  58 NW5       30.21S
$$

COZ041-046-047-076>085-087-088-250900-
...PIKES PEAK/PALMER DIVIDE AND SOUTHERN FOOTHILLS...

CITY           SKY/WX    TMP DP  RH WIND       PRES   REMARKS
COLO. SPRINGS  PTCLDY    48  26  42 N7        30.28S
A. F. ACADEMY  CLEAR     42  24  49 N8        30.29F
ELLICOTT       NOT AVBL
FALCON         PTCLDY    44  25  46 W7        30.32S
FORT CARSON    CLEAR     53  23  31 NW9       30.24F
LIMON          CLEAR     37  30  75 N8        30.22S
MONUMENT HILL  PTCLDY    50  21  32 SW12      30.31S
TRINIDAD       CLEAR     52  28  39 W10       30.25R
$$

COZ042>045-048>051-090-091-250900-
...NORTHEAST COLORADO...

CITY           SKY/WX    TMP DP  RH WIND       PRES   REMARKS
GREELEY ARPT   CLEAR     39  27  60 NW7       30.19S
AKRON          CLEAR     51  26  37 W7        30.17R
BURLINGTON     CLEAR     46  31  55 W9        30.15S
WRAY           CLEAR     44  32  62 W3        30.12S
STERLING       CLEAR     39  34  81 W3        30.14S
HOLYOKE        CLEAR     46  34  61 W7        30.11F
FORT MORGAN    CLEAR     46  27  47 CALM      30.17S
$$

COZ086-089-092>099-250900-
...SOUTHEAST COLORADO...

CITY           SKY/WX    TMP DP  RH WIND       PRES   REMARKS
PUEBLO         CLEAR     49  28  44 NW9       30.18F
LA JUNTA       CLEAR     49  35  58 W12       30.14S
LAMAR          CLEAR     41  36  82 S6        30.10S
SPRINGFIELD      N/A     55  35  47 W7        30.15S
$$



USA.gov is the U.S. government's official web portal to all federal, state and local government web resources and services.